Showing default

AFR-1, 56964

Orbit data source: Space-Track

AFR-1, 56964 is a payload satellite owned by Azista BST (IN) in SSO that was launched on Mon, 12 Jun 2023 UTC via an FALCON 9 launch vehicle from the Air Force Western Test Range (AFWTR). Payload-class satellites include a variety of spacecraft equipped with specific instruments for various scientific and technological missions. These include communications satellites like Starlink; space stations such as the ISS; scientific satellites like the Hubble; Earth observation satellites from companies like Planet Labs, Umbra, and HawkEye 360; GPS; miniature CubeSats for education and research; and military/defense satellites.

Loading next visibility...
Identifier
56964, 2023-084AJ
Orbit
SSO
Country
Flag of ININ / IND
Related business
Manufacturer
Azista BST
Mission
Operational Commercial Imaging
Bus & Motor
AFR, Unknown motor
Mass
80 kg wet, 80 kg dry
Launch date (UTC)
2023-06-12 (2 years ago)
Launch vehicle
FALCON 9
Launch site
Air Force Western Test Range (AFWTR)
Object type
Payload
Rocket body
Debris
Shape & HBR
Box + 1 Pan, 0.5 m
Radar Cross Section
1.100 m², Medium (>0.1 m² and < 1m²)

Expand to show TLE details & history
Last TLE update: 1 day ago

TLE from 1 day ago
0 AFR-1
1 56964U 23084AJ  25305.62194023  .00006420  00000-0  25457-3 0  9997
2 56964  97.5985  72.7639 0012293  63.4561 296.7935 15.25677184132497
Epoch: 2025-11-01T14:55Z
TLE epoch observation values (Epoch: 2025-11-01T14:55:35.635Z)
Latitude
-0.00008°
Longitude
167.71605°
Altitude
488.047 km
Speed
7.623 km/s
True Right ascension
04h 51m 03s
True Declination
0° 00' 00"
Sunlit
Object was in full shadow at epoch
Visualization orbit readout
Latitude
Unknown
Longitude
Unknown
Altitude
Unknown
Speed
Unknown
Apparent Right ascension
Unknown
Apparent Declination
Unknown
Sunlit
N/A
Visualization observer readout
Local Sidereal Time
11:26:57
Azimuth
Unknown
Elevation
Unknown
Doppler factor
Unknown
Orbital elements
Apogee altitude
494.157 km
Perigee altitude
477.282 km
Semi-major axis
6,863.856 km
Eccentricity
0.00123
Inclination
97.5985°
RAAN
72.7639°
Arg. of periapsis
63.4561°
True anomaly
296.66767°
Mean anomaly
296.7935°
Eccentric anomaly
296.73059°
Mean motion
3.81673 °/min
Orbital period
94.32 mins
BSTAR
0.00025457
Loading maneuver chart data...
Computing Atmospheric mass density...

Documentation

Showing up to 5 results
|